Regional Weather Roundup
Issued by NWS

Home | Current Version | Previous Version | Text Only | Print | Product List | Glossary On
Versions: 1 2 3 4 5 6 7 8 9 10 11 12 13 14 15 16 17 18 19 20 21 22 23 24 25 26 27 28 29 30 31 32 33 34 35 36 37 38 39 40 41 42 43 44 45 46 47 48 49 50
000
ASUS43 KDTX 261410
RWRMI
MICHIGAN HOURLY REGIONAL WEATHER ROUNDUP
NATIONAL WEATHER SERVICE DETROIT/PONTIAC MI
ISSUED BY NATIONAL WEATHER SERVICE GRAND RAPIDS MI
1000 AM EDT WED JUL 26 2017

NOTE: "FAIR" INDICATES FEW OR NO CLOUDS BELOW 12,000 FEET WITH NO
SIGNIFICANT WEATHER AND/OR OBSTRUCTION TO VISIBILITY.

MIZ047>049-052>055-059>063-066>070-074>076-081>083-261500-
SOUTHEAST LOWER MICHIGAN

CITY           SKY/WX    TMP DP  RH WIND       PRES   REMARKS
ADRIAN         CLOUDY    69  62  78 SW7       30.18S
ALMA           PTSUNNY   67  60  76 S9        30.13F
ANN ARBOR      CLOUDY    69  62  78 MISG      30.17S
BAD AXE        CLOUDY    66  62  86 S8        30.16F
DETROIT CITY   CLOUDY    71  62  73 S7        30.17S
DETROIT        CLOUDY    69  61  75 S6        30.17F
FLINT          CLOUDY    69  62  78 S8        30.15F
GROSSE ILE     CLOUDY    69  61  75 W6        30.17S
HILLSDALE      CLOUDY    68  59  73 S7        30.16F
HOWELL         MOSUNNY   71  62  73 SW6       30.15F

CITY           SKY/WX    TMP DP  RH WIND       PRES   REMARKS
JACKSON        CLOUDY    71  61  70 SW9       30.16F
LANSING        PTSUNNY   69  59  70 S9        30.15F
MASON          CLOUDY    69  62  80 SE5       30.15F
MONROE         PTSUNNY   69  62  79 W6        30.17S
MT. CLEMENS    CLOUDY    72  62  71 S9        30.15S
PONTIAC        CLOUDY    69  62  78 S6        30.16S
PORT HOPE        N/A     66  61  84 VRB5      30.13F
PORT HURON     CLOUDY    68  61  77 SE5       30.18S
TRI CITIES     CLOUDY    69  63  81 S9        30.14S
YPSILANTI      MOSUNNY   71  64  78 SW8       30.18S
$$
MIZ043>046-050>051-056>058-064>065-071>073-077>080-261500-
SOUTHWEST LOWER MICHIGAN

CITY           SKY/WX    TMP DP  RH WIND       PRES   REMARKS
BATTLE CREEK   CLOUDY    69  62  78 S8        30.15S
BENTON HARBOR  CLOUDY    72  62  71 S9        30.11S
BIG RAPIDS     CLOUDY    68  59  74 S6        30.09F
COLDWATER      CLOUDY    69  63  82 S3        30.15F
HOLLAND        CLOUDY    70  62  76 S8        30.12S
GRAND RAPIDS   CLOUDY    69  62  78 S10       30.12S
KALAMAZOO      CLOUDY    70  60  70 S9        30.14S
MARSHALL       CLOUDY    68  62  80 S5        30.15S
MOUNT PLEASANT CLOUDY    70  58  66 S8        30.10F
MUSKEGON       CLOUDY    71  64  78 S12       30.09F
STURGIS        CLOUDY    68  62  82 S8        30.14F
$$
MIZ016>042-261500-
NORTHERN LOWER MICHIGAN

CITY           SKY/WX    TMP DP  RH WIND       PRES   REMARKS
ALPENA         CLOUDY    63  61  93 S9        30.03F
BEAVER ISLAND  CLOUDY    67  64  87 SW15G24   29.98F
BELLAIRE       PTSUNNY   66  61  85 S6        30.03F
CADILLAC       CLOUDY    70  60  69 SW15      30.07F
CHARLEVOIX     CLOUDY    66  63  88 S9        30.03F
GAYLORD        CLOUDY    65  59  81 SW15G22   30.05F
HOUGHTON LAKE  CLOUDY    67  59  75 S12       30.09F
MANISTEE         N/A     70  65  84 VRB5        N/A
OSCODA         LGT RAIN  65  62  90 S13       30.06F
PELLSTON       CLOUDY    66  61  84 S9        30.00F
TRAVERSE CITY  CLOUDY    70  62  76 SW8       30.01F
LUDINGTON      CLOUDY    71  65  82 S14G20    30.04F
$$
MIZ007>008-015-261500-
EASTERN UPPER MICHIGAN

CITY           SKY/WX    TMP DP  RH WIND       PRES   REMARKS
KINROSS        CLOUDY    64  63  96 SW8       29.97F
MACKINAC ISLAN LGT RAIN  64  64 100 SW14G21   29.97F
NEWBERRY       CLOUDY    64  64  97 S12G17    29.95F
S. S. MARIE    LGT RAIN  66  63  90 SW7       29.96F
$$
MIZ004>006-011>014-085-261500-
CENTRAL UPPER MICHIGAN

CITY           SKY/WX    TMP DP  RH WIND       PRES   REMARKS
MANISTIQUE     CLOUDY    66  63  90 S10       29.95F
ESCANABA       LGT RAIN  68  67  96 SW5       29.95S
MENOMINEE      CLOUDY    68  65  90 VRB3      29.99R
SAWYER-GWINN   PTSUNNY   68  66  94 W5        29.94F
$$
MIZ001>003-009>011-084-261500-
WESTERN UPPER MICHIGAN

CITY           SKY/WX    TMP DP  RH WIND       PRES   REMARKS
IRON MOUNTAIN  LGT RAIN  72  66  81 CALM      29.96R
HOUGHTON       CLOUDY    71  64  78 W10       29.94S
COPPER HARBOR    N/A     72  59  63 NW9       29.90R
IRONWOOD       CLOUDY    70  64  83 W9        29.99R
$$

ABBREVIATIONS USED IN REMARKS
   TC - TEMPERATURE IN CELSIUS
  WCI - WIND CHILL INDEX
   HX - HEAT INDEX
  VSB - VISIBILITY





USA.gov is the U.S. government's official web portal to all federal, state and local government web resources and services.